STARLINK-1540, 46051

Orbit data source: Space-Track

STARLINK-1540, 46051 is a payload satellite owned by SpaceX/Seattle (US) in LEO that was launched on Fri, 07 Aug 2020 UTC via an FALCON 9 launch vehicle from the Air Force Eastern Test Range (AFETR). Payload-class satellites include a variety of spacecraft equipped with specific instruments for various scientific and technological missions. These include communications satellites like Starlink; space stations such as the ISS; scientific satellites like the Hubble; Earth observation satellites from companies like Planet Labs, Umbra, and HawkEye 360; GPS; miniature CubeSats for education and research; and military/defense satellites.

Loading next visibility...
Identifier
46051, 2020-055AA
Orbit
LEO
Last TLE update
18 hours ago
Origin
Manufacturer
SpaceX/Seattle
Mission
Operational Commercial Communications
Bus & Motor
STARLINK, Unknown motor
Mass
260 kg wet, ~248 kg dry
Launch date (UTC)
2020-08-07 (5 years ago)
Launch vehicle
FALCON 9
Launch site
Air Force Eastern Test Range (AFETR)
Object type
Payload
Rocket body
Debris
Shape & HBR
Box + 1 Pan, 8.86 m
Radar Cross Section
13.562 m², Large (>1 m²)

Expand to show TLE details & history

TLE from 18 hours ago
0 STARLINK-1540
1 46051U 20055AA  25128.50457580  .00004872  00000-0  34569-3 0  9991
2 46051  53.0547  46.6454 0001569  84.9941 275.1227 15.06402344263047
Epoch: 2025-05-08T12:06Z
Definitive object data (Epoch: 2025-05-08T12:06:35.349Z)
Latitude
-0.00001°
Longitude
-1.57601°
Altitude
547.987 km
Speed
7.589 km/s
True Right ascension
03h 06m 34s
True Declination
0° 00' 00"
Sunlit
Object was in daylight at TLE epoch
Visualization TLE readout
Latitude
53.05546°
Longitude
79.09095°
Altitude
552.612 km
Speed
7.592 km/s
Apparent Right ascension
04h 59m 16s
Apparent Declination
13° 13' 11"
Sunlit
Object is in daylight
Visualization observer readout
Local Sidereal Time
14:09:10
Azimuth
314.016° NW
Elevation
-23.8°
Doppler factor
1
Orbital elements
Apogee altitude
548.562 km
Perigee altitude
546.388 km
Semi-major axis
6,925.612 km
Eccentricity
0.0001569
Inclination
53.0547°
RAAN
46.6454°
Arg. of periapsis
84.9941°
True anomaly
275.10479°
Mean anomaly
275.1227°
Eccentric anomaly
275.11375°
Mean motion
3.76579 °/min
BSTAR
0.00034569
Orbital period
95.6 mins
Loading maneuver chart data...
Loading SW <> Apogee altitude chart data...
Loading historical data...
Loading historical data...
Loading historical data...
Loading historical data...
Loading historical data...
Loading historical data...
Loading historical data...

STARLINK-1540 Visibility forecast

Observer location: undefined°, undefined°

Span
Click to sort rows by Start time (UTC) header in descending order
Start Az.
Max El. time (UTC)
Max El. Az.
Max El.
End time (UTC)
End Az.
6 mins2025-05-09 20:06:24.852Z186.001° SSW2025-05-09 20:09:24.852Z130.635° SE25.284°2025-05-09 20:12:24.852Z75.188° E
6 mins2025-05-09 21:46:24.852Z265.45° W2025-05-09 21:48:24.852Z310.795° NW33.283°2025-05-09 21:52:24.852Z38.143° NE
5 mins2025-05-10 02:48:24.852Z337.556° N2025-05-10 02:50:24.852Z23.07° NE28.862°2025-05-10 02:53:24.852Z88.748° E
6 mins2025-05-10 04:27:24.852Z288.834° WNW2025-05-10 04:30:24.852Z217.502° SW31.753°2025-05-10 04:33:24.852Z161.512° S
|